SCP
0 0 0 0 0 0 0 0 0 0 0 0 0 1 1 2 2 2 3 5 7 9 9 7 8 9 9 8 7 6 5 6 5 5 4 4 4 4 5 5 5 5 5 5
0 0 0 0 0 0 0 0 0 0 0 0 0 1 1 2 2 3 3 5 8 11 9 8 8 8 8 8 7 6 5 6 5 5 5 5 5 5 5 5 5 5 5 5
0 0 0 0 0 0 0 0 0 0 0 0 0 1 1 2 3 3 3 5 8 12 11 9 8 7 7 7 6 5 5 6 6 6 6 5 5 5 4 4 5 5 4 4
0 0 0 0 0 0 0 0 0 0 0 0 0 1 1 2 3 3 3 4 7 11 12 10 8 7 6 5 5 5 6 6 6 6 6 5 5 5 5 6 6 5 4 4
0 0 0 0 0 0 0 0 0 0 0 0 0 1 1 2 2 2 2 3 6 9 10 9 8 8 6 5 5 6 6 7 7 7 6 5 4 5 6 7 7 6 5 4
0 0 0 0 0 0 0 0 0 0 0 0 0 1 1 1 2 2 2 3 5 7 8 8 8 8 7 5 6 7 8 8 7 7 6 5 4 4 5 6 6 6 5 4
0 0 0 0 0 0 0 0 0 0 0 0 0 1 1 2 2 3 2 3 4 6 6 7 7 7 6 5 6 7 8 7 6 6 6 5 4 4 4 5 5 5 4 4
0 0 0 0 0 0 0 0 0 0 0 0 0 1 1 2 3 3 2 2 3 5 6 6 6 5 4 4 5 6 6 6 5 6 6 5 5 4 4 4 4 4 4 3
0 0 0 0 0 0 0 0 0 0 0 0 0 1 1 2 2 2 2 2 3 4 5 5 5 5 4 4 5 5 5 5 5 5 5 5 4 4 4 4 4 4 3 3
1 1 0 0 0 0 0 0 0 0 0 0 0 1 1 1 1 1 1 2 2 4 5 5 6 5 5 5 6 6 5 6 6 6 5 4 4 4 5 5 4 4 3 3
0 1 0 0 0 0 0 0 0 0 0 0 0 1 1 1 1 1 1 1 2 4 5 6 6 6 5 6 6 6 6 7 8 8 6 5 5 5 5 5 4 4 4 3
0 0 0 0 0 0 0 0 0 0 0 0 0 1 1 1 1 1 2 2 2 4 5 6 5 5 5 5 6 7 7 8 8 8 7 6 5 5 4 4 4 4 4 4
0 1 1 0 0 0 0 0 0 0 0 0 1 1 2 2 1 2 2 2 2 3 4 5 5 5 5 5 6 7 7 7 7 6 6 5 5 4 4 3 3 4 4 4
1 1 1 0 0 0 0 0 0 0 0 0 1 1 2 2 1 1 2 2 2 3 3 4 5 5 4 4 5 6 6 6 5 5 4 4 4 4 4 3 3 4 4 4
1 1 1 1 0 0 0 0 0 0 0 0 1 2 2 2 1 1 1 2 2 2 3 3 4 4 4 4 4 4 5 5 5 4 4 3 4 4 4 4 4 4 4 4
1 1 1 1 1 0 0 0 0 0 0 1 2 3 3 3 2 2 2 2 2 2 2 3 3 4 4 5 5 4 4 4 4 4 3 3 3 3 3 3 4 4 4 3
2 2 1 1 1 0 1 1 1 1 1 1 2 3 3 3 3 2 3 2 2 2 2 3 3 4 4 5 5 4 4 4 4 4 4 4 3 3 3 3 4 4 4 4
3 2 1 1 1 1 1 1 1 1 1 2 2 2 2 3 3 3 3 3 3 3 2 3 3 3 4 4 4 4 3 4 4 4 4 4 4 3 3 3 4 4 4 4
3 2 1 1 1 1 1 1 1 2 2 3 2 2 2 3 3 3 3 4 4 3 3 3 3 3 3 3 3 3 3 4 4 4 4 4 4 4 4 4 4 5 5 4
2 2 1 1 1 1 1 1 2 3 3 3 2 2 3 3 2 2 3 4 4 3 3 3 3 3 3 4 4 4 4 4 4 4 4 4 4 4 5 5 5 6 5 5
2 2 1 1 1 1 1 1 2 3 3 2 2 2 3 3 2 3 4 4 3 3 2 3 3 4 4 4 4 4 4 4 4 4 4 4 5 5 5 6 7 7 6 6
2 2 1 1 1 1 1 1 2 3 3 4 4 4 3 3 3 4 5 5 3 2 2 3 4 5 6 5 5 5 5 5 5 4 5 5 5 5 5 6 7 7 7 7
2 2 2 2 2 2 2 2 2 2 3 5 7 6 4 4 5 7 7 6 5 4 5 5 7 8 8 7 6 6 5 5 5 5 5 5 5 5 5 6 6 6 7 7
3 3 3 3 3 3 2 2 2 1 2 4 5 5 4 4 5 7 7 5 6 7 7 8 9 9 9 8 6 6 6 5 5 5 5 5 6 6 6 6 6 6 6 6
3 3 3 3 3 2 2 2 1 1 1 2 2 2 3 3 4 4 4 4 4 6 6 7 7 8 7 6 5 6 6 5 5 4 5 5 6 6 7 7 6 5 5 5
3 3 3 2 2 2 2 2 1 1 1 1 1 2 2 2 2 3 2 2 3 4 4 5 5 5 5 4 4 5 6 5 5 4 5 5 5 6 7 7 5 4 4 4
Wind_Speed
16 15 16 17 18 18 16 14 12 9 8 9 9 8 8 8 9 10 11 12 14 14 14 13 13 14 14 12 12 11 11 10 8 7 7 6 5 4 4 4 6 6 4 4
16 20 20 18 17 17 17 16 13 8 6 7 9 9 8 9 10 10 9 11 14 15 15 14 13 13 13 13 12 11 11 11 10 7 6 5 5 4 4 4 5 6 5 5
22 17 18 18 17 16 16 14 12 10 9 10 10 10 8 6 5 8 9 11 13 16 17 16 15 14 14 14 14 12 12 12 10 9 6 5 4 3 4 5 4 5 5 4
20 20 17 18 18 16 14 13 13 13 11 9 9 9 6 7 8 9 8 10 12 15 16 16 16 15 14 14 13 12 11 11 10 10 9 10 8 6 6 5 5 5 5 5
18 19 19 17 17 15 14 11 13 13 12 12 10 9 7 7 8 10 11 11 13 15 17 17 17 15 14 14 13 12 11 11 10 10 9 9 7 6 5 6 7 6 5 5
19 18 18 16 15 14 13 13 12 10 9 12 12 11 8 6 9 10 11 11 12 15 16 15 15 14 12 13 13 13 12 10 10 10 10 8 8 7 7 7 7 6 4 4
20 20 18 16 16 16 14 11 8 8 7 11 12 11 7 8 9 9 10 11 12 13 14 15 15 15 14 14 13 13 13 11 11 11 10 9 8 7 7 7 7 7 6 5
17 17 18 16 17 14 15 15 11 8 8 8 9 9 5 6 6 6 6 8 11 14 14 15 16 15 14 15 14 14 13 12 12 11 9 8 8 6 6 6 6 6 5 5
13 15 15 16 15 16 16 15 14 11 10 8 7 6 3 2 5 7 6 8 10 13 14 15 16 16 15 15 14 15 14 13 12 11 10 9 8 7 7 7 6 4 4 6
12 11 14 15 14 17 16 14 10 11 10 10 6 4 3 3 3 6 9 8 8 11 13 14 15 15 14 14 14 14 14 13 12 12 11 10 8 7 6 6 6 6 6 6
16 12 11 14 15 14 14 15 12 9 8 8 5 3 2 2 4 3 7 8 9 10 12 13 13 14 15 14 15 14 14 13 12 12 10 9 9 8 7 6 6 6 6 7
13 10 9 12 11 11 13 14 14 10 8 8 6 2 1 2 3 2 4 6 7 8 10 12 13 14 14 15 15 14 14 14 13 11 10 9 9 9 9 8 7 7 7 8
8 8 8 10 10 11 12 12 12 10 8 8 7 3 4 2 3 1 3 6 7 8 9 10 10 12 13 13 13 13 13 14 13 12 12 11 10 10 9 8 8 8 8 8
8 8 10 10 7 8 11 11 11 11 9 8 7 4 5 3 1 0 2 6 8 9 9 10 9 9 11 12 12 13 13 13 13 12 12 12 11 10 9 9 9 9 8 8
8 10 10 7 6 7 8 11 12 12 12 10 7 5 5 5 3 1 2 4 7 8 9 9 8 8 9 11 11 12 13 12 12 12 12 12 11 10 10 9 9 9 9 10
6 7 8 8 8 7 8 10 12 14 14 10 5 2 3 4 4 2 2 3 5 6 8 9 9 8 8 9 10 10 11 12 11 12 12 11 11 11 10 10 10 10 10 9
7 5 7 7 7 6 8 10 13 12 9 5 3 2 3 3 2 1 2 2 3 4 6 8 8 8 7 7 7 8 9 10 11 11 11 11 11 12 11 12 11 10 10 9
6 5 5 7 7 10 6 7 9 7 4 1 3 5 4 3 3 2 2 3 3 2 4 6 7 7 8 8 8 7 9 10 11 11 11 11 11 11 11 10 10 10 9 8
6 7 7 6 7 6 3 2 1 1 3 5 6 5 4 3 4 3 4 3 3 2 1 3 5 7 6 7 8 8 9 10 11 12 11 11 12 11 11 11 10 9 8 8
7 7 7 6 5 4 1 5 5 1 4 5 6 5 4 3 1 2 4 5 5 4 2 2 4 5 6 5 5 7 8 8 9 10 10 10 11 11 11 10 9 8 7 8
9 9 10 7 5 1 3 3 4 2 3 5 6 6 5 5 3 2 3 5 5 4 3 2 2 3 4 5 5 6 7 7 8 8 8 8 9 9 9 8 8 8 8 8
7 6 8 6 5 2 3 1 4 6 6 6 6 6 5 4 3 3 4 4 4 3 2 1 2 2 3 4 5 5 5 5 6 7 7 7 8 8 9 8 8 8 8 8
2 0 1 2 4 7 8 9 6 6 6 6 6 5 4 3 3 4 5 5 4 4 3 2 2 2 2 2 4 4 4 4 5 5 6 6 8 7 6 8 9 8 7 8
0 2 5 6 8 9 9 8 6 6 5 6 5 5 4 4 4 4 5 5 5 5 4 3 2 2 2 2 2 3 3 4 5 5 5 5 6 6 5 6 7 7 8 8
1 1 4 6 7 9 8 7 6 6 6 6 6 6 6 5 4 4 5 5 4 4 4 3 3 3 3 2 2 1 2 3 4 5 5 5 5 6 5 4 2 4 4 5
4 3 3 4 5 6 6 5 5 5 6 6 6 6 6 6 6 6 5 5 4 4 3 3 3 2 2 2 1 1 2 3 4 4 4 5 5 5 5 5 4 3 3 4
Wind_Direction
209 221 226 229 231 243 259 261 249 245 224 217 237 240 233 205 202 200 187 173 165 164 167 165 161 161 161 159 161 165 164 157 157 164 171 169 166 165 159 155 154 163 165 148
209 222 230 236 238 241 254 265 266 263 253 236 244 243 239 218 212 205 191 176 168 164 166 164 161 164 165 163 164 166 167 162 167 171 171 168 160 165 162 155 152 162 162 161
221 222 223 235 240 240 245 252 260 265 258 247 251 251 248 241 235 210 195 182 176 170 168 165 168 171 171 171 171 174 171 166 171 169 166 162 148 156 156 149 158 165 163 164
230 235 223 224 235 238 244 247 255 260 258 256 249 254 236 218 226 223 212 191 178 167 168 170 172 174 175 174 174 170 169 168 171 172 174 171 170 174 168 159 157 162 167 169
228 228 233 228 230 234 244 249 253 260 266 266 255 257 237 191 210 212 216 207 179 167 170 171 174 173 174 176 175 171 169 172 174 177 175 176 173 168 158 153 155 162 168 167
238 230 230 233 233 234 238 246 252 259 266 260 258 258 240 199 201 201 208 198 175 165 169 168 168 165 173 174 173 170 169 173 175 176 176 181 173 167 161 161 162 167 165 170
232 234 224 224 229 226 227 231 231 234 240 253 257 252 239 196 190 189 190 182 168 162 163 165 166 169 174 174 172 167 167 171 172 172 172 174 172 167 164 167 173 176 169 169
224 228 224 217 223 224 220 227 231 234 234 248 257 254 247 195 167 148 148 156 161 162 162 165 169 172 176 175 170 166 168 170 171 171 170 170 171 173 174 181 173 181 172 162
225 225 220 218 219 229 223 227 234 247 257 257 239 244 256 180 137 140 155 169 167 164 164 166 170 174 175 173 171 170 170 171 173 172 168 174 179 183 178 174 180 176 161 155
244 237 222 213 216 224 232 228 234 239 249 258 241 211 233 235 214 166 162 169 169 163 162 164 169 171 170 168 169 170 171 172 173 173 176 179 182 181 176 178 186 174 167 151
236 246 226 209 211 221 223 227 238 250 256 262 262 229 194 245 268 191 156 157 162 161 157 161 165 167 166 165 168 169 169 171 175 179 182 178 177 178 181 185 180 168 159 152
225 242 237 220 215 229 232 230 231 239 250 262 262 257 306 169 268 245 137 129 139 146 149 155 161 164 166 167 168 168 171 175 178 178 178 179 176 177 183 185 178 168 163 164
216 235 235 219 214 216 235 235 235 236 241 253 261 184 159 236 250 171 125 132 136 141 143 147 156 161 166 169 167 170 175 178 179 178 179 180 179 181 186 181 176 175 172 174
219 229 237 227 220 208 229 243 247 240 239 241 246 182 187 212 237 317 122 140 140 139 144 149 154 161 168 168 170 173 177 177 177 178 181 182 182 183 185 180 178 178 177 180
225 227 236 238 242 235 237 243 244 244 248 247 237 198 196 192 149 141 116 130 134 141 149 152 156 162 169 170 171 175 177 177 176 178 183 182 182 181 184 184 183 182 183 187
225 241 239 242 238 236 241 247 250 251 247 238 216 200 181 143 120 153 131 119 131 149 158 159 162 165 173 176 176 177 177 176 175 181 185 179 182 181 184 186 187 185 187 187
210 227 241 244 244 251 240 238 238 239 242 238 223 136 105 94 75 54 61 98 128 153 157 162 168 170 176 182 177 177 177 173 175 182 185 180 183 184 186 190 187 186 186 186
232 230 238 247 239 235 230 221 227 227 232 177 104 99 108 115 101 60 49 71 82 119 157 162 168 173 177 177 179 183 181 179 181 184 187 183 184 187 187 189 184 182 181 184
229 223 232 238 237 238 252 272 275 192 98 66 78 77 71 79 89 65 32 48 68 67 109 151 165 169 169 176 182 186 187 186 188 189 190 188 187 187 185 188 184 180 179 183
218 213 230 229 238 236 28 5 340 128 117 64 70 64 48 44 86 41 31 41 52 46 40 125 154 156 159 168 174 183 188 187 193 194 193 191 187 187 186 184 181 179 177 183
206 206 221 231 231 157 54 341 311 214 105 61 67 60 47 41 51 16 26 48 47 42 25 71 123 138 149 160 166 181 187 191 190 190 189 183 179 181 180 175 174 172 179 186
212 211 214 224 218 167 47 60 57 75 73 64 61 56 53 36 17 24 34 43 35 23 30 66 104 114 132 154 163 176 184 187 177 180 183 179 171 182 185 175 177 179 183 186
215 358 96 78 94 88 76 79 77 71 66 62 50 32 33 19 13 28 33 31 26 21 26 31 70 93 113 134 157 176 176 169 168 166 169 167 167 177 174 174 181 183 187 198
95 80 107 98 106 98 87 85 78 72 61 58 45 36 42 41 28 29 42 38 29 22 25 30 52 64 72 106 139 159 158 160 162 168 166 167 171 178 175 176 183 189 194 204
34 52 102 112 111 99 81 75 74 74 61 49 41 36 39 45 39 44 58 51 36 26 22 37 48 51 44 45 84 132 152 157 166 167 165 168 178 179 176 168 160 197 189 203
21 58 93 108 104 100 91 63 46 61 60 56 46 37 44 47 44 48 51 45 33 26 19 34 43 44 47 39 70 113 137 150 163 172 172 177 177 169 167 165 154 84 101 130